Regional Weather Roundup
Issued by NWS Newport/Morehead, NC

Current Version | Previous Version | Text Only | Print | Product List | Glossary On
Versions: 1 2 3 4 5 6 7 8 9 10 11 12 13 14 15 16 17 18 19 20 21 22 23 24 25 26 27 28 29 30 31 32 33 34 35 36 37 38 39 40 41 42 43 44 45 46 47 48 49 50
000
ASUS42 KMHX 271622
RWRMHX
WEATHER ROUNDUP FOR EASTERN NORTH CAROLINA
NATIONAL WEATHER SERVICE NEWPORT/MOREHEAD CITY NC
1100 AM EST THU NOV 27 2014

NOTE: "FAIR" INDICATES FEW OR NO CLOUDS BELOW 12,000 FEET
WITH NO SIGNIFICANT WEATHER AND/OR OBSTRUCTIONS TO VISIBILITY

NCZ015>017-031-032-045>047-102-103-271700-
NORTH COAST

CITY           SKY/WX    TMP DP  RH WIND       PRES   REMARKS
EDENTON        PTSUNNY   47  40  77 E6        30.02F
ELIZABETH CITY PTSUNNY   50  43  77 VRB5      30.04F
KITTY HAWK     CLOUDY    46  42  84 SE3       30.02F
MANTEO         CLOUDY    46  41  81 S3        30.03F

$$

NCZ045>047-081-094-103-104-271700-
CENTRAL COAST

CITY           SKY/WX    TMP DP  RH WIND       PRES   REMARKS
FRISCO         PTSUNNY   52  46  80 SE6       30.02F
SWANQUARTER      N/A     52 N/A N/A SE9       29.97S

$$

NCZ095-097-098-100-101-271700-
SOUTHERN COAST

CITY           SKY/WX    TMP DP  RH WIND       PRES   REMARKS
BEAUFORT       MOSUNNY   57  44  62 W15       29.99F
CEDAR ISLAND     N/A     54 N/A N/A NE5G10    30.03S
JACKSONVILLE   SUNNY     52  38  58 W15       30.00F
PINEY ISLAND   MOSUNNY   57  46  66 E8        29.98F
WILMINGTON     SUNNY     53  38  56 W14G23    30.03F


$$

NCZ011>013-027>030-043-044-078>080-089-090>093-098-271700-
COASTAL PLAIN

CITY           SKY/WX    TMP DP  RH WIND       PRES   REMARKS
AHOSKIE        PTSUNNY   42  40  92 N3        30.04F
CLINTON        MOSUNNY   48  41  75 W7        30.02S
ELIZABETHTOWN  SUNNY     51  36  58 W10G20    30.03S
GOLDSBORO      MOSUNNY   48  46  92 W9        29.99F
GREENVILLE     MOSUNNY   46  41  81 E5        30.02F
HAVELOCK       MOSUNNY   56  44  64 W6        30.00F
KENANSVILLE    MOSUNNY   50  39  66 W9        30.02S
KINSTON        PTSUNNY   50  43  76 SW7       30.01F
NEW BERN       SUNNY     55  40  56 SW12      30.00F
RICHLANDS      SUNNY     52  37  58 W9G18     30.00F
ROCKY MOUNT    PTSUNNY   47  41  80 CALM      30.02F
WASHINGTON     PTSUNNY   49  42  74 E3        30.00F
WHITEVILLE     SUNNY     52  36  54 W8G16     30.04S

$$

AMZ130-135-150-152-154-156-158-170-250-252-270-ANZ085-086-088-633-658-670-271700-
MARINE OBSERVATIONS

STATION/POSITION TIME  TEMP    WIND        PRES    WAVE   SWELL
                       AIR SEA DIR/SP/G            HT/PER HT/PER
                 (UTC) (F)     (DEG/KT/KT) (MB)    (FT/S) (FT/S)
CHESAPEAKE LIGHT 1500   45     200/  5/  6 1018.4
64 E VA BEACH    1600   49 62  250/  2/  6 1016.9    6/ 9   7/ 9
DUCK             1600   47 54  140/  5/  7 1016.1
2 E DUCK         1600      56                N/A     4/10   2/11
10 NE DUCK       1600      58                N/A     5/ 9   2/11
OREGON INLET     1600   48 56  130/  5/  7 1016.8
13E OREGON INLT  1600      61                N/A     6/ 9   2/11
HATTERAS CG      1600   52 58   90/  5/  6 1016.4
DIAMOND BUOY     1600   58     240/ 12/ 16 1016.3    5/ 8   5/ 8
17 S OCRACOKE    NOT AVBL
CAPE LOOKOUT     1500   57     220/  7/ 10 1016.3
BEAUFORT LAB     1600   56 57  250/ 10/ 16 1014.4
30 SE NEW RIVER  1600   56 66  270/ 23/ 27 1016.0    5/ 5   2/10
5 SE WRIGHTSVLE  1600   51 59  270/ 16/ 19 1016.4
225 S CAPE HAT   1532   68 73  260/ 16/ 21 1018.7    7/ 7   5/10
41 SE CHARLESTON 1600   56 74  280/ 23/ 29 1018.9    7/ 7   2/10

$$



USA.gov is the U.S. government's official web portal to all federal, state and local government web resources and services.